Back to catalog

STARLINK-37485

AliveCommunicationsVLEO
NORAD 69376·PAYLOAD·🇺🇸 United States

Launched Jun 4, 2026 from Cape Canaveral Space Force Station

Loading…

Next Passes (next 24 hours)

TLE

FreshSource: CelesTrak SupGP

Epoch: Sep 14, 2026, 15:14 UTC

1 69376C 26123Z   26257.63520833  .00064703  00000+0  19121-2 0  2579
2 69376  53.1577 169.1586 0001227  91.0741 107.7511 15.34351425    17

Track STARLINK-37485 in real time with AllMySat

Download on the App Store